Regional Weather Roundup
Issued by NWS Sioux Falls, SD

Home | Current Version | Previous Version | Text Only | Print | Product List | Glossary Off
Versions: 1 2 3 4 5 6 7 8 9 10 11 12 13 14 15 16 17 18 19 20 21 22 23 24 25 26 27 28 29 30 31 32 33 34 35 36 37 38 39 40 41 42 43 44 45 46 47 48 49 50

347
ASUS43 KFSD 180310
RWRFSD

WEATHER ROUNDUP FOR SE SOUTH DAKOTA/SW MINNESOTA/NW IOWA
NATIONAL WEATHER SERVICE SIOUX FALLS SD
1000 PM CDT TUE OCT 17 2017

NOTE: "FAIR" INDICATES FEW OR NO CLOUDS BELOW 12,000 FEET WITH NO
SIGNIFICANT WEATHER AND OR OBSTRUCTIONS TO VISIBILITY.


SDZ038>040-050-052>070-180400-
SOUTHEAST SOUTH DAKOTA

CITY           SKY/WX    TMP DP  RH WIND       PRES   REMARKS
BROOKINGS      CLEAR     59  39  47 S12       29.88F
CHAMBERLAIN    CLEAR     61  41  47 S10       29.82F
HURON          CLEAR     60  41  49 S13       29.82F
MADISON        FAIR      57  39  51 S12       29.89F
MITCHELL       CLEAR     61  41  47 S13       29.86S
SIOUX FALLS    CLEAR     61  46  57 S13       29.91R
WINNER         FAIR      61  34  36 S12       29.84F
YANKTON        CLEAR     62  41  46 S12       29.92S
$$

MNZ071-072-080-081-089-090-097-098-180400-
SOUTHWEST MINNESOTA

CITY           SKY/WX    TMP DP  RH WIND       PRES   REMARKS
FAIRMONT       CLEAR     59  45  59 S14       29.95S
JACKSON        CLEAR     54  43  66 S8        29.96S
LUVERNE        CLEAR     52  41  66 S6        29.93S
MARSHALL       CLEAR     57  41  55 S12       29.87F
MONTEVIDEO     CLEAR     57  39  51 SW8       29.85F
PIPESTONE      CLEAR     59  43  55 S9        29.91S
REDWOOD FALLS  CLEAR     57  39  51 S9        29.89R
TRACY          CLEAR     63  42  46 S14       29.89S
WORTHINGTON    CLEAR     59  44  57 S13       29.95S
$$

IAZ001>003-012>014-020>022-031-032-NEZ013-014-SDZ071-180400-
NORTHWEST IOWA

CITY           SKY/WX    TMP DP  RH WIND       PRES   REMARKS
CHEROKEE       CLEAR     50  46  85 SE5       29.97S
DENISON        CLEAR     57  45  62 VRB6      30.01S
ESTHERVILLE    CLEAR     51  45  79 S8        29.96S
LE MARS        CLEAR     54  45  71 S7        29.95S
ORANGE CITY    CLEAR     57  48  72 S5        29.95F
SHELDON        CLEAR     57  45  62 S6        29.94S
SIOUX CITY     CLEAR     50  45  83 SE6       29.96S
SPENCER        CLEAR     54  45  71 S8        29.97R
STORM LAKE     CLEAR     54  45  71 S9        29.98F
$$

ABBREVIATIONS USED IN REMARKS
   TC - TEMPERATURE IN CELSIUS
  WCI - WIND CHILL INDEX
   HX - HEAT INDEX
  VSB - VISIBILITY





USA.gov is the U.S. government's official web portal to all federal, state and local government web resources and services.